Other Public Products
Issued by NWS Grand Forks, ND

Home | Current Version | Previous Version | Text Only | Print | Product List | Glossary On
Versions: 1 2 3 4 5 6 7 8 9 10 11 12 13 14 15 16 17 18 19 20 21 22 23 24 25 26 27 28 29 30 31 32 33 34 35 36 37 38 39 40 41 42 43 44 45 46 47 48 49 50
000
FPUS83 KFGF 191910
OPUFGF
PRAIRIE TO PINES WEATHER ROUNDUP
NATIONAL WEATHER SERVICE EASTERN NORTH DAKOTA/GRAND FORKS ND
100 PM CST SUN FEB 19 2017

 **SATELLITE DATA USED TO AUGMENT SKY COVER AT AUTOMATED STATIONS**
 *****  WEATHER ACROSS EASTERN NORTH DAKOTA  *****

CITY           SKY/WX    TMP DP  RH WIND       PRES   REMARKS
GRAND FORKS    CLOUDY    42  33  70 SE13      29.70F
GRAND FORKS AF FAIR      41  37  83 SE9       29.70F
GRAND CITY NWS NOT AVBL
BUXTON         NOT AVBL
DEVILS LAKE    FAIR      38  35  89 E14       29.61F
FARGO          FAIR      53  41  63 SE25G32   29.67F
WAHPETON ARPT  FAIR      50  41  71 SE16      29.69F
$$

 *****  WEATHER ACROSS CENTRAL AND WESTERN NORTH DAKOTA  *****

CITY           SKY/WX    TMP DP  RH WIND       PRES   REMARKS
JAMESTOWN      FAIR      44  39  82 SE13      29.58F
BISMARCK       FAIR      43  35  73 E5        29.52F
MINOT          CLOUDY    39  35  86 E9        29.55S
MINOT AFB      NOT AVBL
GARRISON         N/A     40  35  83 E10       29.51F
WILLISTON      CLOUDY    36  32  85 E7        29.51F
DICKINSON      FAIR      48  36  63 SE8       29.43F
HETTINGER      FAIR      53  35  50 SE6       29.47F
$$

 *****  OTHER OBSERVATIONS NORTHEAST NORTH DAKOTA  *****

CITY           SKY/WX    TMP DP  RH WIND       PRES   REMARKS
WALHALLA       NOT AVBL
LANGDON        NOT AVBL
CAVALIER       FAIR      36  32  87 E6        29.74F
GRAFTON        FAIR      36  36 100 E7        29.75F
CANDO          NOT AVBL
FORT TOTTEN      N/A     42  38  84 E7        29.95S
ROLLA          FAIR      32  32 100 E12       29.64F WCI  23
RUGBY            N/A     36  34  93 E18       29.58F
 ***** THE ABOVE OBSERVATIONS ARE NON NWS ARE NOT QUALITY
        CONTROLLED AND MAY MIS-REPORT RAIN FOR SNOW...
$$

 *****  OTHER OBSERVATIONS SOUTHEAST NORTH DAKOTA *****

CITY           SKY/WX    TMP DP  RH WIND       PRES   REMARKS
COOPERSTOWN    FAIR      39  37  93 SE16      29.63F
VALLEY CITY    FAIR      45  45 100 SE16      29.65F
OAKES          NOT AVBL
GWINNER        FAIR      48  45  87 E16       29.63F
SHEYENNE NWR     N/A     49  41  74 SE18      29.95S
BUFFALO        NOT AVBL
WYNDMERE       NOT AVBL
 ***** THE ABOVE OBSERVATIONS ARE NON NWS ARE NOT QUALITY
       CONTROLLED AND MAY MIS-REPORT RAIN FOR SNOW...
$$

  *****  WEATHER ACROSS NORTHERN MINNESOTA  *****

CITY           SKY/WX    TMP DP  RH WIND       PRES   REMARKS
FLAG ISLAND    FAIR      39  28  65 E7        29.86F
WARROAD        FAIR      37  34  87 NE10      29.84F
ROSEAU         FAIR      39  32  75 E12       29.80F
HALLOCK        FAIR      39  34  81 E14       29.74F
THF RVR FALLS  FAIR      41  33  73 SE17      29.76F
HALSTAD          N/A     47  41  80 SE21        N/A
FOSSTON        FAIR      43  34  70 SE13G21   29.77F
BAUDETTE       CLOUDY    40  30  67 E7        29.85F
WASKISH        CLOUDY    46  30  53 SE8       29.85F
CROOKSTON      FAIR      43  37  81 SE17      29.73F
$$
  *****  WEATHER ACROSS CENTRAL AND WEST MINNESOTA  *****

CITY           SKY/WX    TMP DP  RH WIND       PRES   REMARKS
BEMIDJI        LGT RAIN  40  32  71 SE10      29.82F
PARK RAPIDS    FAIR      47  35  63 SE12      29.82F
WADENA         FAIR      46  39  76 SE14      29.80F
DETROIT LAKES  FAIR      45  37  76 SE17G23   29.76F
MOORHEAD       FAIR      54  43  66 SE17G24   29.69F
FERGUS FALLS   FAIR      52  41  66 SE20      29.75F
ELBOW LAKE     FAIR      52  43  70 E17G26    29.73F
MORRIS MN      FAIR      54  46  76 SE20G28   29.74F
STAPLES        FAIR      48  37  66 SE7       29.84F
WHEATON        FAIR      52  43  71 SE22      29.71F
$$
  *****  WEATHER ELSEWHERE ACROSS MINNESOTA  *****

CITY           SKY/WX    TMP DP  RH WIND       PRES   REMARKS
DULUTH         FAIR      42  31  64 E10       29.94F
INTRNTL FALLS  FAIR      42  30  62 E9        29.90F
ELY            FAIR      48  28  46 SE6       29.93F
CLOQUET        FAIR      45  28  53 E6        29.94S
BRAINERD       FAIR      47  37  68 SE6       29.87S
HIBBING        FAIR      45  28  51 SE9       29.91F
ALEXANDRIA     FAIR      51  41  68 SE18G24   29.79F
SAINT CLOUD    FAIR      55  42  61 SE10      29.86F
MINNEAPOLIS    PTSUNNY   57  39  51 SE12      29.91F
$$

  *****  WEATHER ACROSS SOUTH DAKOTA  *****

CITY           SKY/WX    TMP DP  RH WIND       PRES   REMARKS
SIOUX FALLS    PTSUNNY   61  51  70 S23G30    29.74F
BROOKINGS      FAIR      55  47  74 S18G26    29.70F
WATERTOWN      FAIR      55  45  68 S20G26    29.68F
HURON          FAIR      58  46  64 S16G28    29.60F
SISSETON         N/A     51  45  79 S20       29.68F
ABERDEEN       FAIR      58  46  64 S23       29.59F
MITCHELL       FAIR      58  48  69 S22G32    29.65F
PIERRE         FAIR      64  37  36 S13       29.52F
MOBRIDGE       FAIR      47  36  65 S10       29.49F
RAPID CITY     FAIR      68  32  26 S15       29.49F
$$

  *****  SOME WEATHER IN NEARBY STATES *****

CITY           SKY/WX    TMP DP  RH WIND       PRES   REMARKS
GLASGOW MT     CLOUDY    34  32  92 SE10      29.45S FOG
GREAT FALLS MT PTSUNNY   47  27  45 SW12      29.44R
CHEYENNE WY    FAIR      53  26  35 SE8       29.68F
SCOTTSBLUFF NE FAIR      53  33  46 SE7       29.64F
OMAHA NE       CLOUDY    66  48  52 S21       29.83F
DES MOINES IA  PTSUNNY   71  47  42 S15       29.91F
DAVENPORT IA   FAIR      66  38  35 SE9       30.01F
CHICAGO IL     FAIR      65  28  24 CALM      30.04F
EAU CLAIRE WI  FAIR      57  32  38 S13       29.96F
LA CROSSE WI   FAIR      57  34  41 S8        29.98F
$$

  *****  SOME NATIONAL WEATHER *****

CITY           SKY/WX    TMP DP  RH WIND       PRES   REMARKS
LA GUARDIA NY  FAIR      65  34  31 W14G21    29.79S
RALEIGH NC     FAIR      71  42  35 VRB7      29.97S
ATLANTA GA     FAIR      65  48  54 N14       30.07F
NEW ORLEANS LA PTSUNNY   75  65  70 CALM      30.04F
OKLAHOMA CITY  PTSUNNY   69  58  67 S16G25    29.88F
ALBUQUERQUE NM PTSUNNY   48  35  60 CALM      29.87F
SALT LAKE CITY PTSUNNY   47  40  76 S6        29.70R
LOS ANGELES CA PTSUNNY   58  51  78 W5        29.97R
BOISE ID       CLOUDY    46  38  73 SE12      29.62R
SEATTLE WA     LGT RAIN  45  40  82 S8        29.46R
$$

*** WEATHER ACROSS MANITOBA...SASKATCHEWAN AND ONTARIO ***
                ***ONTARIO***

CITY           SKY/WX    TMP DP  RH WIND       PRES   REMARKS
GERALDTON      CLOUDY    34  25  69 N9        30.03R
THUNDER BAY    PTSUNNY   41  30  65 E8        30.03S
SIOUX LOOKOUT  PTSUNNY   41  27  56 S3        29.95F
TORONTO        MOSUNNY   52  34  50 W21G28    29.89R
BIG TROUT LK   CLOUDY    25  21  86 SW3       30.07R
PICKLE LAKE    CLOUDY    28  23  80 N3        30.01F
DRYDEN         CLOUDY    37  28  70 SE6       29.93F
KENORA         PTSUNNY   37  28  70 E10       29.90F
$$
                *** MANITOBA***

CITY           SKY/WX    TMP DP  RH WIND       PRES   REMARKS
BRANDON        PTSUNNY   32  28  86 E30       29.69F WCI  18
DAUPHIN        CLOUDY    32  27  80 E21       29.79F WCI  20
ISLAND LAKE    CLOUDY    23  16  74 SE7       30.00F WCI  15
PILOT MOUND      N/A     34  30  86 E20G25      N/A  WCI  22
THE PAS        CLOUDY    28  21  74 E13       29.90F WCI  18
THOMPSON       CLOUDY    21  16  79 E5        30.00F WCI  15
WINNIPEG       CLOUDY    36  30  80 E10       29.80F
LYNN LAKE      CLOUDY    21  19  93 SE5       29.95S WCI  15
CHURCHILL      FLURRIES   9   7  92 S9        30.10S WCI  -5
GILLAM         CLOUDY    18  12  79 N5        30.06S WCI  11
$$
                ***SASKATCHEWAN***

CITY           SKY/WX    TMP DP  RH WIND       PRES   REMARKS
ESTEVAN        CLOUDY    34  30  86 E20G26    29.55F WCI  22
KINDERSLEY     CLOUDY    34  32  93 SE14      29.40S WCI  24
LLOYDMINSTER   LGT SNOW  34  32  93 SE13G20   29.43S WCI  25
PRINCE ALBERT  CLOUDY    32  27  80 E18G25    29.65F WCI  20
REGINA         CLOUDY    36  30  80 SE20G30   29.55F
YORKTON        MOSUNNY   34  28  80 E16G22    29.68F WC


USA.gov is the U.S. government's official web portal to all federal, state and local government web resources and services.